[[{"header":{"parameterUnit":"m.s-1","parameterCategory":1,"la1":30.2991,"la2":30.254,"lo1":-89.0895,"lo2":-89.0444,"dy":0.0017,"dx":0.0017,"nx":28,"ny":28,"refTime":"2023-11-16T09:00:00:Z","depth":0,"parameterNumber":2,"parameterNumberName":"U-component_of_WINDS"},"data":[0,0,0,0,0,0,0,0,0,0,0,0,0,0,0,0,0,0,0,0,0,0,0,0,0,0,0,0,0,0,0,0,0,0,0,0,0,0,0,0,0,0,0,0,0,0,0,0,0,0,0,0,0,0,0,0,0,0,-4.0649,-4.065,0,-4.078,-4.0782,-4.0783,-4.075,-4.0748,-4.0745,-4.0743,-4.088,-4.0886,-4.0892,0,0,0,0,0,0,0,0,0,0,0,0,0,-4.0371,-4.0377,-4.0649,-4.065,-4.0652,-4.078,-4.0782,-4.0784,-4.0751,-4.0748,-4.0744,-4.0741,-4.0878,-4.0886,-4.0893,0,0,0,0,0,0,0,0,0,0,0,0,0,-4.0496,-4.0378,-4.0648,-4.0651,-4.0652,-4.078,-4.0782,-4.0784,-4.0751,-4.0748,-4.0744,-4.074,-4.0876,-4.0885,-4.0894,-4.1028,0,0,-4.0922,-4.0926,0,0,0,0,0,0,0,0,-4.0489,-4.0507,-4.0649,-4.0651,-4.0653,-4.0745,-4.0735,-4.0866,-4.0752,-4.0714,-4.0743,-4.0738,-4.0839,-4.0851,-4.0884,-4.1034,-4.104,-4.0923,-4.0928,-4.0932,-4.0935,0,0,0,0,0,0,0,-4.0481,-4.0501,-4.0701,-4.0651,-4.0653,-4.0646,-4.066,-4.0759,-4.0797,-4.0717,-4.0715,-4.0731,-4.0839,-4.0875,-4.0887,-4.1042,-4.0922,-4.093,-4.0936,-4.094,-4.1311,-4.1315,0,0,0,0,0,0,-4.047,-4.0494,-4.0697,-4.0705,-4.056,-4.0654,-4.0669,-4.0719,-4.0795,-4.0803,-4.0734,-4.0729,-4.0862,-4.0876,-4.0892,-4.1055,-4.0932,-4.094,-4.0946,-4.1306,-4.1312,-4.1316,0,0,0,0,0,0,-4.0464,-4.0488,-4.0691,-4.0599,-4.0624,-4.0663,-4.072,-4.0724,-4.076,-4.0808,-4.0815,-4.0764,-4.0859,-4.0879,-4.0994,-4.1059,-4.0945,-4.0953,-4.1301,-4.1308,-4.1314,-4.1381,0,0,0,0,0,0,-4.0456,-4.0487,-4.0537,-4.06,-4.0629,-4.0791,-4.0723,-4.0729,-4.0776,-4.077,-4.0838,-4.0846,-4.0858,-4.0981,-4.1003,-4.1069,-4.096,-4.1296,-4.1304,-4.1312,-4.1373,-4.1389,-4.1403,0,0,0,0,0,-4.0447,-4.0551,-4.054,-4.0564,-4.0693,-4.0795,-4.0812,-4.0822,-4.0781,-4.0833,-4.0864,-4.0843,-4.1048,-4.0993,-4.1018,-4.1088,-4.1292,-4.1302,-4.1311,-4.1367,-4.1386,-4.1402,0,0,0,0,0,0,-4.0495,-4.0559,-4.0548,-4.0675,-4.073,-4.0789,-4.0855,-4.0842,-4.091,-4.0902,-4.0914,-4.0929,-4.1048,-4.1079,-4.1017,-4.1222,-4.1164,-4.1179,-4.1198,-4.1216,-4.1231,-4.1221,-4.0968,0,0,0,0,0,-4.0521,-4.0597,-4.0649,-4.0757,-4.0785,-4.0815,-4.086,-4.0863,-4.0921,-4.0944,-4.0983,-4.1041,-4.1118,-4.1169,-4.1242,-4.1377,-4.1393,-4.1438,-4.1452,-4.1464,-4.1478,-4.1554,-4.1575,-4.1349,-4.1349,-4.1349,0,0,-4.0574,-4.0619,-4.0666,-4.0768,-4.0811,-4.0891,-4.0835,-4.0922,-4.0982,-4.0957,-4.1069,-4.11,-4.1165,-4.1291,-4.1349,-4.1321,-4.1544,-4.1477,-4.1486,-4.1493,-4.1566,-4.1587,-4.1606,-4.1356,-4.1354,-4.1353,0,0,-4.0713,-4.0754,-4.0849,-4.0893,-4.0958,-4.0977,-4.1,-4.1062,-4.1081,-4.1193,-4.1177,-4.1249,-4.1381,-4.1429,-4.147,-4.1628,-4.1612,-4.1651,-4.1729,-4.1802,-4.182,-4.1836,-4.1894,-4.1914,-4.1664,-4.1665,-4.1665,0,-4.0772,-4.0891,-4.0899,-4.0988,-4.1034,-4.1015,-4.1112,-4.1154,-4.1241,-4.1273,-4.124,-4.1407,-4.1449,-4.1587,-4.1625,-4.1659,-4.1687,-4.1644,-4.1817,-4.1833,-4.1848,-4.1903,-4.1925,-4.1669,-4.1669,-4.1668,-4.1668,0,-4.0961,-4.1044,-4.1113,-4.1197,-4.125,-4.1343,-4.1366,-4.1419,-4.1418,-4.1441,-4.1557,-4.1606,-4.169,-4.1723,-4.1723,-4.1862,-4.1843,-4.1813,-4.1755,-4.1873,-4.1926,-4.1947,-4.1675,-4.1674,-4.1672,-4.1671,0,0,-4.1135,-4.1222,-4.1247,-4.1286,-4.1356,-4.1421,-4.1513,-4.1595,-4.1641,-4.1701,-4.178,-4.1892,-4.1866,-4.1913,-4.1918,-4.1982,-4.2106,-4.1945,-4.1947,-4.1975,-4.2264,-4.2287,-4.2311,-4.2096,-4.21,-4.2103,-4.2259,0,-4.1282,-4.1443,-4.1454,-4.16,-4.1678,-4.1661,-4.1742,-4.1795,-4.1819,-4.1889,-4.1916,-4.1997,-4.1955,-4.1983,-4.2046,-4.2078,-4.2165,-4.2067,-4.2171,-4.2175,-4.2157,-4.2338,-4.2363,-4.2508,-4.228,-4.2283,-4.2286,0,-4.1474,-4.154,-4.1695,-4.1755,-4.1788,-4.1861,-4.1937,-4.2004,-4.2064,-4.2077,-4.213,-4.2126,-4.2222,-4.2159,-4.2293,-4.2226,-4.2269,-4.2291,-4.2297,-4.2309,-4.2238,-4.2356,-4.2554,-4.2576,-4.2318,-4.2315,-4.2313,0,-4.1588,-4.1715,-4.1824,-4.1857,-4.193,-4.1982,-4.2015,-4.2071,-4.2119,-4.2186,-4.2218,-4.2295,-4.2338,-4.2399,-4.2417,-4.2369,-4.2551,-4.2489,-4.2566,-4.2566,-4.2606,-4.2603,-4.2815,-4.2631,-4.2631,-4.263,-4.263,0,-4.1751,-4.1847,-4.1876,-4.1944,-4.2051,-4.2062,-4.2168,-4.2198,-4.2248,-4.2322,-4.2312,-4.2382,-4.24,-4.2474,-4.2488,-4.2598,-4.2617,-4.2631,-4.2634,-4.2633,-4.2632,-4.2663,-4.2654,-4.2636,-4.2635,-4.2634,-4.2633,0,-4.1897,-4.192,-4.2038,-4.2098,-4.2115,-4.2192,-4.2243,-4.2309,-4.2331,-4.2425,-4.2448,-4.2484,-4.257,-4.2594,-4.2697,-4.2707,-4.2836,-4.2829,-4.2816,-4.2816,-4.2892,-4.2886,-4.3133,-4.3166,-4.2959,-4.2961,-4.2962,0,-4.2,-4.2074,-4.2141,-4.2189,-4.2225,-4.2303,-4.2352,-4.2366,-4.2418,-4.2493,-4.255,-4.2634,-4.2703,-4.2842,-4.2878,-4.2958,-4.2954,-4.3035,-4.2966,-4.2963,-4.2957,-4.2953,-4.2961,-4.3048,-4.305,-4.3052,-4.3054,0,-4.2182,-4.219,-4.2262,-4.2338,-4.2398,-4.2458,-4.2517,-4.2557,-4.2579,-4.2639,-4.2727,-4.278,-4.2885,-4.297,-4.3051,-4.3086,-4.3075,-4.3075,-4.3097,-4.3098,-4.3088,-4.3096,-4.2853,-4.307,-4.3068,-4.3067,-4.3066,-4.3065,-4.2311,-4.2376,-4.2434,-4.2514,-4.2559,-4.2614,-4.2679,-4.271,-4.2783,-4.287,-4.2873,-4.2969,-4.3028,-4.3135,-4.3175,-4.3251,-4.3227,-4.3258,-4.3267,-4.3275,-4.3282,-4.3074,-4.3265,-4.3265,-4.3264,-4.3264,-4.3264,0,-4.2494,-4.253,-4.2604,-4.2686,-4.275,-4.2732,-4.2796,-4.2851,-4.2935,-4.299,-4.3058,-4.316,-4.3242,-4.3285,-4.3367,-4.342,-4.3417,-4.3442,-4.3439,-4.3447,-4.3298,-4.3271,-4.3443,-4.3443,-4.3443,-4.3443,-4.3442,-4.3442,-4.2597,-4.2706,-4.2721,-4.2853,-4.2889,-4.2982,-4.302,-4.3071,-4.3116,-4.323,-4.3298,-4.3325,-4.3376,-4.3462,-4.3538,-4.3548,-4.358,-4.3607,-4.3615,-4.3476,-4.3458,-4.344,-4.3415,-4.3614,-4.3614,-4.3758,-4.376,-4.3761]},{"header":{"parameterUnit":"m.s-1","parameterCategory":1,"la1":30.2991,"la2":30.254,"lo1":-89.0895,"lo2":-89.0444,"dy":0.0017,"dx":0.0017,"nx":28,"ny":28,"refTime":"2023-11-16T09:00:00:Z","depth":0,"parameterNumber":3,"parameterNumberName":"V-component_of_WINDS"},"data":[0,0,0,0,0,0,0,0,0,0,0,0,0,0,0,0,0,0,0,0,0,0,0,0,0,0,0,0,0,0,0,0,0,0,0,0,0,0,0,0,0,0,0,0,0,0,0,0,0,0,0,0,0,0,0,0,0,0,-6.594,-6.5939,0,-6.5911,-6.5911,-6.591,-6.5783,-6.578,-6.5777,-6.5774,-6.5747,-6.5749,-6.5751,0,0,0,0,0,0,0,0,0,0,0,0,0,-6.5886,-6.5887,-6.594,-6.5939,-6.5939,-6.5911,-6.5911,-6.591,-6.5783,-6.578,-6.5776,-6.5773,-6.5746,-6.5749,-6.5751,0,0,0,0,0,0,0,0,0,0,0,0,0,-6.5888,-6.5888,-6.594,-6.5872,-6.5866,-6.5911,-6.5911,-6.591,-6.5784,-6.578,-6.5775,-6.5771,-6.5745,-6.5748,-6.5751,-6.586,0,0,-6.5761,-6.5762,0,0,0,0,0,0,0,0,-6.5888,-6.5891,-6.5882,-6.5877,-6.587,-6.5846,-6.5882,-6.5894,-6.5785,-6.5815,-6.5774,-6.5769,-6.5784,-6.5783,-6.5788,-6.5859,-6.5858,-6.5761,-6.5763,-6.5764,-6.5765,0,0,0,0,0,0,0,-6.5888,-6.5891,-6.5928,-6.5883,-6.5875,-6.5844,-6.5839,-6.5883,-6.5825,-6.5812,-6.5803,-6.5801,-6.5779,-6.5785,-6.5786,-6.5858,-6.5761,-6.5764,-6.5766,-6.5767,-6.6017,-6.6021,0,0,0,0,0,0,-6.5897,-6.5892,-6.5929,-6.5927,-6.5868,-6.5848,-6.5843,-6.5858,-6.5824,-6.5815,-6.5805,-6.5795,-6.5782,-6.5783,-6.5785,-6.591,-6.5764,-6.5767,-6.5769,-6.6012,-6.6018,-6.6023,0,0,0,0,0,0,-6.5897,-6.5902,-6.593,-6.5907,-6.5908,-6.5854,-6.5872,-6.586,-6.5866,-6.5819,-6.5808,-6.5822,-6.5779,-6.578,-6.5842,-6.5907,-6.5769,-6.5772,-6.6006,-6.6014,-6.602,-6.6162,0,0,0,0,0,0,-6.5896,-6.5903,-6.5943,-6.5909,-6.591,-6.5989,-6.5876,-6.5863,-6.5871,-6.5858,-6.5831,-6.5823,-6.5775,-6.5838,-6.5846,-6.5909,-6.5774,-6.6,-6.601,-6.6018,-6.6151,-6.6173,-6.6191,0,0,0,0,0,-6.5894,-6.5985,-6.5946,-6.5951,-6.596,-6.5992,-6.5993,-6.5936,-6.5877,-6.5917,-6.5887,-6.5823,-6.5899,-6.5846,-6.5853,-6.5918,-6.5996,-6.6007,-6.6017,-6.6142,-6.6168,-6.6191,0,0,0,0,0,0,-6.6029,-6.5979,-6.5935,-6.6017,-6.601,-6.5971,-6.602,-6.5966,-6.5976,-6.5964,-6.5893,-6.5888,-6.596,-6.5945,-6.5887,-6.6022,-6.5937,-6.5949,-6.6029,-6.6054,-6.6074,-6.6076,-6.5777,0,0,0,0,0,-6.6068,-6.6098,-6.6053,-6.613,-6.6128,-6.6075,-6.6087,-6.6044,-6.6034,-6.603,-6.6004,-6.5998,-6.602,-6.6036,-6.6054,-6.6148,-6.614,-6.6196,-6.6217,-6.6233,-6.6245,-6.6294,-6.6318,-6.6058,-6.6058,-6.6058,0,0,-6.6149,-6.6125,-6.6149,-6.6156,-6.6145,-6.6179,-6.6073,-6.6113,-6.6138,-6.6037,-6.6093,-6.6074,-6.6062,-6.6141,-6.6174,-6.613,-6.6315,-6.6247,-6.6261,-6.6263,-6.6308,-6.6332,-6.6354,-6.6065,-6.6064,-6.6063,0,0,-6.6314,-6.6299,-6.6361,-6.6352,-6.6337,-6.6301,-6.6316,-6.6285,-6.6269,-6.6324,-6.6249,-6.6277,-6.6317,-6.6311,-6.6313,-6.6476,-6.6418,-6.6484,-6.6589,-6.6638,-6.6658,-6.6676,-6.6735,-6.6756,-6.6496,-6.6496,-6.6496,0,-6.6417,-6.6464,-6.64,-6.6445,-6.645,-6.6359,-6.6422,-6.6416,-6.6408,-6.6414,-6.6365,-6.6413,-6.6398,-6.6474,-6.6514,-6.6519,-6.6534,-6.6486,-6.666,-6.6678,-6.6693,-6.6748,-6.677,-6.6504,-6.6503,-6.6502,-6.6501,0,-6.6591,-6.6625,-6.6677,-6.667,-6.6681,-6.6735,-6.668,-6.6699,-6.6655,-6.6624,-6.6682,-6.6661,-6.6673,-6.6688,-6.6645,-6.6758,-6.6731,-6.6673,-6.6586,-6.6727,-6.6778,-6.6798,-6.6516,-6.6513,-6.651,-6.6508,0,0,-6.684,-6.6797,-6.6818,-6.6813,-6.679,-6.6815,-6.6864,-6.6875,-6.6893,-6.689,-6.693,-6.6966,-6.6911,-6.6914,-6.687,-6.6912,-6.7043,-6.6848,-6.6847,-6.6885,-6.7166,-6.7211,-6.7236,-6.7004,-6.7008,-6.7011,-6.7167,0,-6.6998,-6.7079,-6.7023,-6.7114,-6.7144,-6.7058,-6.7101,-6.7092,-6.7065,-6.7087,-6.7057,-6.7084,-6.7009,-6.701,-6.7049,-6.7019,-6.7098,-6.7007,-6.7041,-6.7043,-6.7047,-6.7262,-6.731,-6.7458,-6.7186,-6.719,-6.7192,0,-6.7192,-6.7198,-6.7292,-6.7261,-6.7272,-6.7312,-6.7317,-6.7339,-6.7327,-6.7304,-6.7307,-6.7252,-6.7299,-6.7214,-6.7278,-6.7217,-6.7227,-6.7215,-6.722,-6.7221,-6.7127,-6.727,-6.7504,-6.7527,-6.7222,-6.722,-6.7218,0,-6.7365,-6.7396,-6.7455,-6.7454,-6.7421,-6.7451,-6.7438,-6.7421,-6.7431,-6.7436,-6.7442,-6.7453,-6.7459,-6.7469,-6.7419,-6.7361,-6.749,-6.74,-6.7473,-6.7474,-6.7504,-6.7503,-6.7744,-6.7511,-6.7511,-6.751,-6.751,0,-6.7547,-6.7608,-6.7532,-6.7569,-6.7635,-6.757,-6.7637,-6.7615,-6.7601,-6.7633,-6.756,-6.7591,-6.7522,-6.7547,-6.7508,-6.7567,-6.7571,-6.7554,-6.7543,-6.7561,-6.7563,-6.7567,-6.7556,-6.7516,-6.7515,-6.7513,-6.7512,0,-6.7751,-6.7703,-6.7762,-6.7725,-6.7717,-6.7767,-6.7736,-6.7769,-6.7736,-6.7778,-6.7784,-6.7733,-6.7759,-6.7709,-6.7728,-6.7702,-6.7786,-6.7758,-6.779,-6.7782,-6.7857,-6.7851,-6.811,-6.814,-6.7888,-6.789,-6.7893,0,-6.787,-6.7915,-6.7882,-6.7898,-6.7889,-6.7915,-6.7925,-6.7863,-6.7876,-6.7865,-6.79,-6.7918,-6.793,-6.7975,-6.7941,-6.7955,-6.7928,-6.8017,-6.7929,-6.7946,-6.7929,-6.7927,-6.7932,-6.8036,-6.8039,-6.8041,-6.8043,0,-6.8088,-6.8061,-6.8077,-6.8085,-6.8099,-6.8102,-6.8101,-6.8118,-6.8052,-6.807,-6.8095,-6.8104,-6.8123,-6.8143,-6.8149,-6.8136,-6.808,-6.8071,-6.8089,-6.8107,-6.8124,-6.8116,-6.7839,-6.8065,-6.8063,-6.8062,-6.806,-6.806,-6.8253,-6.8288,-6.8271,-6.8291,-6.8283,-6.8283,-6.8312,-6.8283,-6.8302,-6.8312,-6.8274,-6.8308,-6.8294,-6.8296,-6.829,-6.8316,-6.8275,-6.8301,-6.8308,-6.8315,-6.8327,-6.812,-6.8316,-6.8316,-6.8315,-6.8314,-6.8314,0,-6.8466,-6.845,-6.847,-6.8469,-6.8485,-6.8429,-6.8424,-6.8442,-6.8472,-6.8463,-6.8476,-6.8505,-6.8523,-6.8491,-6.8505,-6.8531,-6.8506,-6.8537,-6.8535,-6.8533,-6.8362,-6.8346,-6.8558,-6.8558,-6.8558,-6.8558,-6.8558,-6.8558,-6.8579,-6.8636,-6.8608,-6.866,-6.8644,-6.8675,-6.8677,-6.8677,-6.867,-6.8705,-6.872,-6.8698,-6.868,-6.8692,-6.8707,-6.8697,-6.8706,-6.8747,-6.8728,-6.8569,-6.8545,-6.8522,-6.8506,-6.8749,-6.8749,-6.8896,-6.8898,-6.8899]}]]